Time,TemperatureF,DewpointF,PressureIn,WindDirection,WindDirectionDegrees,WindSpeedMPH,WindSpeedGustMPH,Humidity,HourlyPrecipIn,Conditions,Clouds,dailyrainin,SoftwareType,DateUTC
2013-07-09 00:00:00,79.4,75.2,30.15,East,94,0.0,1.0,87,0.00,,---,0.00,VWS V14.01,2013-07-09 04:00:00,
2013-07-09 00:01:00,79.4,75.2,30.15,East,94,0.0,1.0,87,0.00,,---,0.00,VWS V14.01,2013-07-09 04:01:00,
2013-07-09 00:02:00,79.4,75.2,30.15,East,93,1.0,2.0,87,0.00,,---,0.00,VWS V14.01,2013-07-09 04:02:00,
2013-07-09 00:05:00,79.5,75.3,30.15,East,93,0.0,2.0,87,0.00,,---,0.00,VWS V14.01,2013-07-09 04:05:00,
2013-07-09 00:09:00,79.4,75.2,30.14,East,93,0.0,2.0,87,0.00,,---,0.00,VWS V14.01,2013-07-09 04:09:00,
2013-07-09 00:12:00,79.4,75.2,30.14,East,93,0.0,2.0,87,0.00,,---,0.00,VWS V14.01,2013-07-09 04:12:00,
2013-07-09 00:15:00,80.2,74.9,30.14,East,94,0.0,2.0,84,0.00,,---,0.00,VWS V15.00,2013-07-09 04:15:00,
2013-07-09 00:17:00,79.3,75.1,30.15,ESE,111,0.0,0.0,87,0.00,,---,0.00,VWS V14.01,2013-07-09 04:17:00,
2013-07-09 00:22:00,79.2,75.0,30.14,East,98,0.0,1.0,87,0.00,,---,0.00,VWS V14.01,2013-07-09 04:22:00,
2013-07-09 00:27:00,79.2,74.7,30.14,East,101,1.0,1.0,86,0.00,,---,0.00,VWS V14.01,2013-07-09 04:27:00,
2013-07-09 00:30:00,79.2,74.7,30.14,East,95,0.0,0.0,86,0.00,,---,0.00,VWS V15.00,2013-07-09 04:30:00,
2013-07-09 00:32:00,79.3,74.8,30.14,East,101,0.0,1.0,86,0.00,,---,0.00,VWS V14.01,2013-07-09 04:32:00,
2013-07-09 00:37:00,79.2,74.7,30.14,East,101,0.0,1.0,86,0.00,,---,0.00,VWS V14.01,2013-07-09 04:37:00,
2013-07-09 00:42:00,79.1,74.6,30.14,East,101,0.0,1.0,86,0.00,,---,0.00,VWS V14.01,2013-07-09 04:42:00,
2013-07-09 00:45:00,79.1,74.9,30.15,East,94,0.0,1.0,87,0.00,,---,0.00,VWS V15.00,2013-07-09 04:45:00,
2013-07-09 00:47:00,79.0,74.5,30.14,East,101,0.0,1.0,86,0.00,,---,0.00,VWS V14.01,2013-07-09 04:47:00,
2013-07-09 00:52:00,79.0,74.8,30.14,East,101,0.0,1.0,87,0.00,,---,0.00,VWS V14.01,2013-07-09 04:52:00,
2013-07-09 00:57:00,79.0,74.8,30.14,East,101,0.0,1.0,87,0.00,,---,0.00,VWS V14.01,2013-07-09 04:57:00,
2013-07-09 01:00:00,79.4,75.2,30.15,East,94,0.0,1.0,87,0.00,,---,0.00,VWS V15.00,2013-07-09 05:00:00,
2013-07-09 01:02:00,78.9,74.7,30.14,East,101,0.0,0.0,87,0.00,,---,0.00,VWS V14.01,2013-07-09 05:02:00,
2013-07-09 01:07:00,78.7,74.5,30.14,East,101,0.0,1.0,87,0.00,,---,0.00,VWS V14.01,2013-07-09 05:07:00,
2013-07-09 01:12:00,78.6,74.4,30.14,East,101,0.0,1.0,87,0.00,,---,0.00,VWS V14.01,2013-07-09 05:12:00,
2013-07-09 01:15:00,79.3,75.1,30.15,ESE,111,0.0,2.0,87,0.00,,---,0.00,VWS V15.00,2013-07-09 05:15:00,
2013-07-09 01:17:00,78.7,74.2,30.14,East,100,0.0,0.0,86,0.00,,---,0.00,VWS V14.01,2013-07-09 05:17:00,
2013-07-09 01:23:00,78.7,74.2,30.14,East,100,0.0,1.0,86,0.00,,---,0.00,VWS V14.01,2013-07-09 05:23:00,
2013-07-09 01:28:00,78.5,74.7,30.14,East,100,0.0,1.0,88,0.00,,---,0.00,VWS V14.01,2013-07-09 05:28:00,
2013-07-09 01:30:00,79.3,74.8,30.14,East,101,0.0,1.0,86,0.00,,---,0.00,VWS V15.00,2013-07-09 05:30:00,
2013-07-09 01:33:00,78.2,74.0,30.14,East,100,0.0,0.0,87,0.00,,---,0.00,VWS V14.01,2013-07-09 05:33:00,
2013-07-09 01:38:00,78.0,74.2,30.13,East,100,0.0,0.0,88,0.00,,---,0.00,VWS V14.01,2013-07-09 05:38:00,
2013-07-09 01:43:00,78.0,74.2,30.13,East,100,0.0,1.0,88,0.00,,---,0.00,VWS V14.01,2013-07-09 05:43:00,
2013-07-09 01:45:00,79.1,74.6,30.14,East,101,0.0,1.0,86,0.00,,---,0.00,VWS V15.00,2013-07-09 05:45:00,
2013-07-09 01:48:00,78.0,74.2,30.13,East,100,0.0,0.0,88,0.00,,---,0.00,VWS V14.01,2013-07-09 05:48:00,
2013-07-09 01:53:00,77.8,74.0,30.12,East,100,0.0,0.0,88,0.00,,---,0.00,VWS V14.01,2013-07-09 05:53:00,
2013-07-09 01:58:00,77.6,73.8,30.12,East,100,0.0,1.0,88,0.00,,---,0.00,VWS V14.01,2013-07-09 05:58:00,
2013-07-09 02:00:00,78.9,74.7,30.14,East,101,0.0,1.0,87,0.00,,---,0.00,VWS V15.00,2013-07-09 06:00:00,
2013-07-09 02:03:00,77.5,74.0,30.12,East,100,0.0,0.0,89,0.00,,---,0.00,VWS V14.01,2013-07-09 06:03:00,
2013-07-09 02:08:00,77.3,73.8,30.12,East,100,0.0,0.0,89,0.00,,---,0.00,VWS V14.01,2013-07-09 06:08:00,
2013-07-09 02:13:00,77.1,73.6,30.12,East,100,0.0,0.0,89,0.00,,---,0.00,VWS V14.01,2013-07-09 06:13:00,
2013-07-09 02:15:00,78.6,74.1,30.14,East,100,0.0,2.0,86,0.00,,---,0.00,VWS V15.00,2013-07-09 06:15:00,
2013-07-09 02:18:00,77.0,73.8,30.12,East,100,0.0,0.0,90,0.00,,---,0.00,VWS V14.01,2013-07-09 06:18:00,
2013-07-09 02:23:00,77.0,73.5,30.12,East,100,0.0,0.0,89,0.00,,---,0.00,VWS V14.01,2013-07-09 06:23:00,
2013-07-09 02:28:00,77.0,73.8,30.12,East,100,0.0,0.0,90,0.00,,---,0.00,VWS V14.01,2013-07-09 06:28:00,
2013-07-09 02:30:00,78.3,74.1,30.13,East,100,0.0,1.0,87,0.00,,---,0.00,VWS V15.00,2013-07-09 06:30:00,
2013-07-09 02:33:00,76.9,74.1,30.11,East,100,0.0,0.0,91,0.00,,---,0.00,VWS V14.01,2013-07-09 06:33:00,
2013-07-09 02:38:00,76.8,74.0,30.11,East,100,0.0,0.0,91,0.00,,---,0.00,VWS V14.01,2013-07-09 06:38:00,
2013-07-09 02:43:00,76.6,73.4,30.11,East,100,0.0,0.0,90,0.00,,---,0.00,VWS V14.01,2013-07-09 06:43:00,
2013-07-09 02:45:00,78.0,74.2,30.13,East,100,0.0,1.0,88,0.00,,---,0.00,VWS V15.00,2013-07-09 06:45:00,
2013-07-09 02:48:00,76.5,73.7,30.10,East,100,0.0,0.0,91,0.00,,---,0.00,VWS V14.01,2013-07-09 06:48:00,
2013-07-09 02:53:00,76.4,73.9,30.10,East,100,0.0,0.0,92,0.00,,---,0.00,VWS V14.01,2013-07-09 06:53:00,
2013-07-09 02:58:00,76.2,73.7,30.10,East,100,0.0,0.0,92,0.00,,---,0.00,VWS V14.01,2013-07-09 06:58:00,
2013-07-09 03:00:00,77.6,74.1,30.12,East,100,0.0,1.0,89,0.00,,---,0.00,VWS V15.00,2013-07-09 07:00:00,
2013-07-09 03:03:00,76.1,73.3,30.10,East,100,0.0,0.0,91,0.00,,---,0.00,VWS V14.01,2013-07-09 07:03:00,
2013-07-09 03:08:00,76.0,73.5,30.10,East,100,0.0,0.0,92,0.00,,---,0.00,VWS V14.01,2013-07-09 07:08:00,
2013-07-09 03:13:00,76.1,73.6,30.10,East,100,0.0,0.0,92,0.00,,---,0.00,VWS V14.01,2013-07-09 07:13:00,
2013-07-09 03:15:00,77.0,73.8,30.12,East,100,0.0,0.0,90,0.00,,---,0.00,VWS V15.00,2013-07-09 07:15:00,
2013-07-09 03:18:00,76.3,73.5,30.10,East,100,0.0,0.0,91,0.00,,---,0.00,VWS V14.01,2013-07-09 07:18:00,
2013-07-09 03:23:00,76.3,73.8,30.10,East,100,0.0,0.0,92,0.00,,---,0.00,VWS V14.01,2013-07-09 07:23:00,
2013-07-09 03:28:00,76.1,73.9,30.09,East,100,0.0,0.0,93,0.00,,---,0.00,VWS V14.01,2013-07-09 07:28:00,
2013-07-09 03:30:00,76.9,74.1,30.11,East,100,0.0,0.0,91,0.00,,---,0.00,VWS V15.00,2013-07-09 07:30:00,
2013-07-09 03:33:00,76.2,74.0,30.09,East,100,0.0,1.0,93,0.00,,---,0.00,VWS V14.01,2013-07-09 07:33:00,
2013-07-09 03:38:00,76.5,73.7,30.09,ESE,118,0.0,2.0,91,0.00,,---,0.00,VWS V14.01,2013-07-09 07:38:00,
2013-07-09 03:43:00,76.7,73.9,30.09,ESE,118,0.0,2.0,91,0.00,,---,0.00,VWS V14.01,2013-07-09 07:43:00,
2013-07-09 03:45:00,76.6,73.8,30.11,East,100,0.0,0.0,91,0.00,,---,0.00,VWS V15.00,2013-07-09 07:45:00,
2013-07-09 03:48:00,76.6,74.1,30.09,ESE,118,0.0,0.0,92,0.00,,---,0.00,VWS V14.01,2013-07-09 07:48:00,
2013-07-09 03:54:00,76.4,73.9,30.09,ESE,118,0.0,0.0,92,0.00,,---,0.00,VWS V14.01,2013-07-09 07:54:00,
2013-07-09 03:59:00,76.3,73.8,30.08,ESE,118,0.0,0.0,92,0.00,,---,0.00,VWS V14.01,2013-07-09 07:59:00,
2013-07-09 04:00:00,76.2,73.4,30.10,East,100,0.0,0.0,91,0.00,,---,0.00,VWS V15.00,2013-07-09 08:00:00,
2013-07-09 04:04:00,76.3,73.8,30.08,ESE,118,0.0,0.0,92,0.00,,---,0.00,VWS V14.01,2013-07-09 08:04:00,
2013-07-09 04:09:00,76.3,74.1,30.09,ESE,118,0.0,0.0,93,0.00,,---,0.00,VWS V14.01,2013-07-09 08:09:00,
2013-07-09 04:14:00,76.1,73.9,30.08,ESE,118,0.0,0.0,93,0.00,,---,0.00,VWS V14.01,2013-07-09 08:14:00,
2013-07-09 04:15:00,76.3,73.8,30.10,East,100,0.0,0.0,92,0.00,,---,0.00,VWS V15.00,2013-07-09 08:15:00,
2013-07-09 04:19:00,76.0,73.8,30.08,ESE,118,0.0,0.0,93,0.00,,---,0.00,VWS V14.01,2013-07-09 08:19:00,
2013-07-09 04:24:00,75.9,73.7,30.08,ESE,118,0.0,0.0,93,0.00,,---,0.00,VWS V14.01,2013-07-09 08:24:00,
2013-07-09 04:29:00,75.9,73.7,30.08,ESE,118,0.0,0.0,93,0.00,,---,0.00,VWS V14.01,2013-07-09 08:29:00,
2013-07-09 04:30:00,76.1,73.9,30.09,East,100,0.0,0.0,93,0.00,,---,0.00,VWS V15.00,2013-07-09 08:30:00,
2013-07-09 04:34:00,75.9,74.1,30.08,ESE,118,0.0,0.0,94,0.00,,---,0.00,VWS V14.01,2013-07-09 08:34:00,
2013-07-09 04:39:00,75.7,73.5,30.08,ESE,118,0.0,0.0,93,0.00,,---,0.00,VWS V14.01,2013-07-09 08:39:00,
2013-07-09 04:44:00,75.7,73.8,30.08,ESE,118,0.0,0.0,94,0.00,,---,0.00,VWS V14.01,2013-07-09 08:44:00,
2013-07-09 04:45:00,76.7,74.2,30.09,ESE,118,0.0,2.0,92,0.00,,---,0.00,VWS V15.00,2013-07-09 08:45:00,
2013-07-09 04:49:00,75.5,73.7,30.08,ESE,118,0.0,0.0,94,0.00,,---,0.00,VWS V14.01,2013-07-09 08:49:00,
2013-07-09 04:54:00,75.4,73.6,30.08,ESE,118,0.0,0.0,94,0.00,,---,0.00,VWS V14.01,2013-07-09 08:54:00,
2013-07-09 04:59:00,75.3,73.8,30.08,ESE,118,0.0,0.0,95,0.00,,---,0.00,VWS V14.01,2013-07-09 08:59:00,
2013-07-09 05:00:00,76.3,73.8,30.08,ESE,118,0.0,0.0,92,0.00,,---,0.00,VWS V15.00,2013-07-09 09:00:00,
2013-07-09 05:04:00,75.3,73.8,30.08,ESE,118,0.0,0.0,95,0.00,,---,0.00,VWS V14.01,2013-07-09 09:04:00,
2013-07-09 05:09:00,75.4,73.9,30.09,ESE,118,0.0,0.0,95,0.00,,---,0.00,VWS V14.01,2013-07-09 09:09:00,
2013-07-09 05:14:00,75.5,74.0,30.09,ESE,118,0.0,0.0,95,0.00,,---,0.00,VWS V14.01,2013-07-09 09:14:00,
2013-07-09 05:15:00,76.1,73.6,30.08,ESE,118,0.0,0.0,92,0.00,,---,0.00,VWS V15.00,2013-07-09 09:15:00,
2013-07-09 05:19:00,75.5,74.0,30.09,ESE,118,0.0,0.0,95,0.00,,---,0.00,VWS V14.01,2013-07-09 09:19:00,
2013-07-09 05:24:00,75.6,74.1,30.08,ENE,70,0.0,1.0,95,0.00,,---,0.00,VWS V14.01,2013-07-09 09:24:00,
2013-07-09 05:29:00,75.7,73.8,30.09,ENE,70,0.0,1.0,94,0.00,,---,0.00,VWS V14.01,2013-07-09 09:29:00,
2013-07-09 05:30:00,75.9,73.7,30.08,ESE,118,0.0,0.0,93,0.00,,---,0.00,VWS V15.00,2013-07-09 09:30:00,
2013-07-09 05:34:00,75.8,73.9,30.09,ENE,70,0.0,1.0,94,0.00,,---,0.00,VWS V14.01,2013-07-09 09:34:00,
2013-07-09 05:40:00,76.0,74.2,30.09,NE,56,0.0,1.0,94,0.00,,---,0.00,VWS V14.01,2013-07-09 09:40:00,
2013-07-09 05:45:00,76.1,74.2,30.09,NE,56,0.0,1.0,94,0.00,,---,0.00,VWS V14.01,2013-07-09 09:45:00,
2013-07-09 05:50:00,76.2,74.3,30.09,NE,56,0.0,1.0,94,0.00,,---,0.00,VWS V14.01,2013-07-09 09:50:00,
2013-07-09 05:55:00,76.4,74.6,30.09,NE,56,0.0,1.0,94,0.00,,---,0.00,VWS V14.01,2013-07-09 09:55:00,
2013-07-09 06:00:00,76.4,74.6,30.09,NE,56,0.0,1.0,94,0.00,,---,0.00,VWS V14.01,2013-07-09 10:00:00,
2013-07-09 06:05:00,76.3,74.4,30.10,NE,56,0.0,1.0,94,0.00,,---,0.00,VWS V14.01,2013-07-09 10:05:00,
2013-07-09 06:10:00,76.2,74.3,30.10,NE,56,0.0,1.0,94,0.00,,---,0.00,VWS V14.01,2013-07-09 10:10:00,
2013-07-09 06:15:00,76.1,74.6,30.10,NE,56,0.0,1.0,95,0.00,,---,0.00,VWS V14.01,2013-07-09 10:15:00,
2013-07-09 06:20:00,76.0,74.5,30.10,NE,56,0.0,0.0,95,0.00,,---,0.00,VWS V14.01,2013-07-09 10:20:00,
2013-07-09 06:25:00,76.0,74.5,30.10,NE,56,0.0,0.0,95,0.00,,---,0.00,VWS V14.01,2013-07-09 10:25:00,
2013-07-09 06:30:00,75.9,74.4,30.10,NE,56,0.0,0.0,95,0.00,,---,0.00,VWS V14.01,2013-07-09 10:30:00,
2013-07-09 06:35:00,75.9,74.4,30.10,NE,56,0.0,1.0,95,0.00,,---,0.00,VWS V14.01,2013-07-09 10:35:00,
2013-07-09 06:40:00,76.0,74.5,30.10,NE,56,0.0,1.0,95,0.00,,---,0.00,VWS V14.01,2013-07-09 10:40:00,
2013-07-09 06:45:00,76.0,74.5,30.10,North,356,3.0,3.0,95,0.00,,---,0.00,VWS V14.01,2013-07-09 10:45:00,
2013-07-09 06:50:00,76.2,74.3,30.10,North,7,1.0,2.0,94,0.00,,---,0.00,VWS V14.01,2013-07-09 10:50:00,
2013-07-09 06:55:00,76.5,74.7,30.10,North,7,0.0,2.0,94,0.00,,---,0.00,VWS V14.01,2013-07-09 10:55:00,
2013-07-09 07:00:00,76.8,74.9,30.10,North,7,0.0,2.0,94,0.00,,---,0.00,VWS V14.01,2013-07-09 11:00:00,
2013-07-09 07:05:00,76.8,74.6,30.10,North,7,1.0,2.0,93,0.00,,---,0.00,VWS V14.01,2013-07-09 11:05:00,
2013-07-09 07:10:00,76.9,74.4,30.10,North,7,0.0,2.0,92,0.00,,---,0.00,VWS V14.01,2013-07-09 11:10:00,
2013-07-09 07:15:00,77.0,74.5,30.10,North,352,0.0,2.0,92,0.00,,---,0.00,VWS V14.01,2013-07-09 11:15:00,
2013-07-09 07:20:00,77.1,74.6,30.10,North,357,0.0,1.0,92,0.00,,---,0.00,VWS V14.01,2013-07-09 11:20:00,
2013-07-09 07:25:00,77.5,74.7,30.11,North,6,1.0,2.0,91,0.00,,---,0.00,VWS V14.01,2013-07-09 11:25:00,
2013-07-09 07:30:00,78.1,74.9,30.11,NNE,23,1.0,3.0,90,0.00,,---,0.00,VWS V14.01,2013-07-09 11:30:00,
2013-07-09 07:35:00,78.6,75.1,30.11,NW,316,0.0,2.0,89,0.00,,---,0.00,VWS V14.01,2013-07-09 11:35:00,
2013-07-09 07:40:00,78.9,75.4,30.11,NW,316,0.0,2.0,89,0.00,,---,0.00,VWS V14.01,2013-07-09 11:40:00,
2013-07-09 07:45:00,79.7,75.5,30.11,NNE,15,2.0,2.0,87,0.00,,---,0.00,VWS V14.01,2013-07-09 11:45:00,
2013-07-09 07:50:00,80.5,75.6,30.11,North,1,0.0,2.0,85,0.00,,---,0.00,VWS V14.01,2013-07-09 11:50:00,
2013-07-09 07:55:00,80.9,75.6,30.12,NNW,336,0.0,2.0,84,0.00,,---,0.00,VWS V14.01,2013-07-09 11:55:00,
2013-07-09 08:00:00,80.5,74.9,30.12,North,8,2.0,3.0,83,0.00,,---,0.00,VWS V14.01,2013-07-09 12:00:00,
2013-07-09 08:05:00,80.2,74.9,30.12,North,358,1.0,2.0,84,0.00,,---,0.00,VWS V14.01,2013-07-09 12:05:00,
2013-07-09 08:10:00,80.0,75.1,30.12,NNE,20,1.0,4.0,85,0.00,,---,0.00,VWS V14.01,2013-07-09 12:10:00,
2013-07-09 08:15:00,79.8,75.2,30.12,NNW,338,1.0,4.0,86,0.00,,---,0.00,VWS V14.01,2013-07-09 12:15:00,
2013-07-09 08:20:00,79.7,74.8,30.12,North,4,1.0,2.0,85,0.00,,---,0.00,VWS V14.01,2013-07-09 12:20:00,
2013-07-09 08:26:00,79.7,75.2,30.12,NE,43,1.0,3.0,86,0.00,,---,0.00,VWS V14.01,2013-07-09 12:26:00,
2013-07-09 08:30:00,78.2,75.0,30.11,NNE,20,1.0,3.0,90,0.00,,---,0.00,VWS V15.00,2013-07-09 12:30:00,
2013-07-09 08:31:00,79.8,74.9,30.12,North,360,1.0,3.0,85,0.00,,---,0.00,VWS V14.01,2013-07-09 12:31:00,
2013-07-09 08:36:00,79.8,75.2,30.12,North,7,0.0,2.0,86,0.00,,---,0.00,VWS V14.01,2013-07-09 12:36:00,
2013-07-09 08:41:00,79.9,75.3,30.12,North,350,1.0,2.0,86,0.00,,---,0.00,VWS V14.01,2013-07-09 12:41:00,
2013-07-09 08:45:00,79.8,75.2,30.11,NNE,15,1.0,2.0,86,0.00,,---,0.00,VWS V15.00,2013-07-09 12:45:00,
2013-07-09 08:46:00,80.0,75.4,30.12,NW,305,1.0,3.0,86,0.00,,---,0.00,VWS V14.01,2013-07-09 12:46:00,
2013-07-09 08:51:00,79.9,75.7,30.12,NNW,338,0.0,4.0,87,0.00,,---,0.00,VWS V14.01,2013-07-09 12:51:00,
2013-07-09 08:56:00,80.1,75.2,30.12,North,355,1.0,4.0,85,0.00,,---,0.00,VWS V14.01,2013-07-09 12:56:00,
2013-07-09 09:00:00,80.5,74.9,30.12,North,8,1.0,3.0,83,0.00,,---,0.00,VWS V15.00,2013-07-09 13:00:00,
2013-07-09 09:01:00,80.4,75.5,30.12,North,357,3.0,4.0,85,0.00,,---,0.00,VWS V14.01,2013-07-09 13:01:00,
2013-07-09 09:06:00,80.6,75.0,30.12,NE,35,2.0,5.0,83,0.00,,---,0.00,VWS V14.01,2013-07-09 13:06:00,
2013-07-09 09:11:00,80.7,74.7,30.12,ENE,69,2.0,5.0,82,0.00,,---,0.00,VWS V14.01,2013-07-09 13:11:00,
2013-07-09 09:15:00,79.8,75.2,30.12,NNW,338,0.0,4.0,86,0.00,,---,0.00,VWS V15.00,2013-07-09 13:15:00,
2013-07-09 09:16:00,81.1,75.4,30.12,NE,44,2.0,2.0,83,0.00,,---,0.00,VWS V14.01,2013-07-09 13:16:00,
2013-07-09 09:21:00,81.7,73.8,30.12,North,356,3.0,7.0,77,0.00,,---,0.00,VWS V14.01,2013-07-09 13:21:00,
2013-07-09 09:26:00,82.2,74.3,30.12,ENE,61,1.0,7.0,77,0.00,,---,0.00,VWS V14.01,2013-07-09 13:26:00,
2013-07-09 09:30:00,79.8,74.9,30.12,North,1,1.0,3.0,85,0.00,,---,0.00,VWS V15.00,2013-07-09 13:30:00,
2013-07-09 09:31:00,82.1,73.8,30.12,ENE,60,4.0,4.0,76,0.00,,---,0.00,VWS V14.01,2013-07-09 13:31:00,
2013-07-09 09:36:00,82.1,73.0,30.12,East,98,3.0,5.0,74,0.00,,---,0.00,VWS V14.01,2013-07-09 13:36:00,
2013-07-09 09:41:00,82.3,73.6,30.13,East,101,1.0,5.0,75,0.00,,---,0.00,VWS V14.01,2013-07-09 13:41:00,
2013-07-09 09:45:00,79.9,75.3,30.12,NW,305,1.0,3.0,86,0.00,,---,0.00,VWS V15.00,2013-07-09 13:45:00,
2013-07-09 09:46:00,82.7,74.4,30.13,NNE,28,0.0,0.0,76,0.00,,---,0.00,VWS V14.01,2013-07-09 13:46:00,
2013-07-09 09:51:00,82.9,73.8,30.13,ENE,65,0.0,4.0,74,0.00,,---,0.00,VWS V14.01,2013-07-09 13:51:00,
2013-07-09 09:56:00,83.0,73.9,30.13,ESE,108,2.0,4.0,74,0.00,,---,0.00,VWS V14.01,2013-07-09 13:56:00,
2013-07-09 10:00:00,80.4,75.5,30.12,North,357,3.0,4.0,85,0.00,,---,0.00,VWS V15.00,2013-07-09 14:00:00,
2013-07-09 10:01:00,82.8,72.9,30.14,ENE,63,1.0,1.0,72,0.00,,---,0.00,VWS V14.01,2013-07-09 14:01:00,
2013-07-09 10:06:00,82.8,72.9,30.14,SE,136,2.0,5.0,72,0.00,,---,0.00,VWS V14.01,2013-07-09 14:06:00,
2013-07-09 10:11:00,82.8,73.3,30.14,NNE,13,0.0,6.0,73,0.00,,---,0.00,VWS V14.01,2013-07-09 14:11:00,
2013-07-09 10:15:00,81.1,75.4,30.13,NNE,23,2.0,5.0,83,0.00,,---,0.00,VWS V15.00,2013-07-09 14:15:00,
2013-07-09 10:16:00,83.5,73.9,30.15,East,91,2.0,2.0,73,0.00,,---,0.00,VWS V14.01,2013-07-09 14:16:00,
2013-07-09 10:21:00,83.9,73.1,30.15,ESE,105,3.0,7.0,70,0.00,,---,0.00,VWS V14.01,2013-07-09 14:21:00,
2013-07-09 10:26:00,84.1,74.1,30.15,East,88,4.0,7.0,72,0.00,,---,0.00,VWS V14.01,2013-07-09 14:26:00,
2013-07-09 10:30:00,82.1,73.8,30.12,East,86,2.0,7.0,76,0.00,,---,0.00,VWS V15.00,2013-07-09 14:30:00,
2013-07-09 10:31:00,84.9,74.4,30.15,NE,52,2.0,3.0,71,0.00,,---,0.00,VWS V14.01,2013-07-09 14:31:00,
2013-07-09 10:36:00,85.0,73.3,30.15,East,98,4.0,8.0,68,0.00,,---,0.00,VWS V14.01,2013-07-09 14:36:00,
2013-07-09 10:41:00,84.3,73.9,30.15,ENE,72,0.0,8.0,71,0.00,,---,0.00,VWS V14.01,2013-07-09 14:41:00,
2013-07-09 10:45:00,82.7,74.0,30.13,NNE,27,0.0,5.0,75,0.00,,---,0.00,VWS V15.00,2013-07-09 14:45:00,
2013-07-09 10:46:00,84.3,73.5,30.15,East,98,2.0,4.0,70,0.00,,---,0.00,VWS V14.01,2013-07-09 14:46:00,
2013-07-09 10:51:00,84.4,74.0,30.14,ESE,118,2.0,9.0,71,0.00,,---,0.00,VWS V14.01,2013-07-09 14:51:00,
2013-07-09 10:56:00,84.6,73.7,30.14,ESE,103,4.0,9.0,70,0.00,,---,0.00,VWS V14.01,2013-07-09 14:56:00,
2013-07-09 11:00:00,82.8,72.9,30.14,East,79,1.0,5.0,72,0.00,,---,0.00,VWS V15.00,2013-07-09 15:00:00,
2013-07-09 11:02:00,85.7,73.5,30.15,SE,133,5.0,8.0,67,0.00,,---,0.00,VWS V14.01,2013-07-09 15:02:00,
2013-07-09 11:07:00,85.7,71.7,30.15,SE,139,6.0,10.0,63,0.00,,---,0.00,VWS V14.01,2013-07-09 15:07:00,
2013-07-09 11:12:00,85.0,73.3,30.14,ESE,103,9.0,11.0,68,0.00,,---,0.00,VWS V14.01,2013-07-09 15:12:00,
2013-07-09 11:15:00,83.3,73.8,30.15,ENE,75,1.0,6.0,73,0.00,,---,0.00,VWS V15.00,2013-07-09 15:15:00,
2013-07-09 11:17:00,84.4,73.6,30.15,East,92,3.0,6.0,70,0.00,,---,0.00,VWS V14.01,2013-07-09 15:17:00,
2013-07-09 11:22:00,84.3,72.6,30.14,SE,125,4.0,9.0,68,0.00,,---,0.00,VWS V14.01,2013-07-09 15:22:00,
2013-07-09 11:27:00,84.3,73.0,30.14,ESE,115,3.0,9.0,69,0.00,,---,0.00,VWS V14.01,2013-07-09 15:27:00,
2013-07-09 11:30:00,84.8,74.8,30.15,East,89,3.0,9.0,72,0.00,,---,0.00,VWS V15.00,2013-07-09 15:30:00,
2013-07-09 11:32:00,84.6,72.4,30.15,ESE,122,6.0,9.0,67,0.00,,---,0.00,VWS V14.01,2013-07-09 15:32:00,
2013-07-09 11:37:00,84.6,72.0,30.14,SE,142,4.0,9.0,66,0.00,,---,0.00,VWS V14.01,2013-07-09 15:37:00,
2013-07-09 11:42:00,84.8,71.3,30.14,SE,145,4.0,10.0,64,0.00,,---,0.00,VWS V14.01,2013-07-09 15:42:00,
2013-07-09 11:45:00,84.3,73.5,30.15,ENE,75,4.0,8.0,70,0.00,,---,0.00,VWS V15.00,2013-07-09 15:45:00,
2013-07-09 11:47:00,84.9,71.4,30.14,ESE,102,1.0,4.0,64,0.00,,---,0.00,VWS V14.01,2013-07-09 15:47:00,
2013-07-09 11:52:00,85.7,70.7,30.14,East,84,7.0,10.0,61,0.00,,---,0.00,VWS V14.01,2013-07-09 15:52:00,
2013-07-09 11:57:00,85.7,71.7,30.14,ESE,107,2.0,10.0,63,0.00,,---,0.00,VWS V14.01,2013-07-09 15:57:00,
2013-07-09 12:00:00,85.6,74.7,30.14,ESE,114,6.0,9.0,70,0.00,,---,0.00,VWS V15.00,2013-07-09 16:00:00,
2013-07-09 12:02:00,86.2,70.7,30.13,ESE,120,0.0,5.0,60,0.00,,---,0.00,VWS V14.01,2013-07-09 16:02:00,
2013-07-09 12:07:00,86.0,70.5,30.13,SE,141,2.0,6.0,60,0.00,,---,0.00,VWS V14.01,2013-07-09 16:07:00,
2013-07-09 12:12:00,85.5,70.5,30.13,SE,129,4.0,10.0,61,0.00,,---,0.00,VWS V14.01,2013-07-09 16:12:00,
2013-07-09 12:15:00,84.4,73.1,30.15,SE,124,4.0,11.0,69,0.00,,---,0.00,VWS V15.00,2013-07-09 16:15:00,
2013-07-09 12:17:00,85.8,71.3,30.13,SE,136,6.0,7.0,62,0.00,,---,0.00,VWS V14.01,2013-07-09 16:17:00,
2013-07-09 12:22:00,86.8,70.8,30.13,SE,124,2.0,10.0,59,0.00,,---,0.00,VWS V14.01,2013-07-09 16:22:00,
2013-07-09 12:27:00,87.2,71.1,30.13,ESE,102,8.0,10.0,59,0.00,,---,0.00,VWS V14.01,2013-07-09 16:27:00,
2013-07-09 12:30:00,84.6,73.3,30.15,East,101,9.0,9.0,69,0.00,,---,0.00,VWS V15.00,2013-07-09 16:30:00,
2013-07-09 12:32:00,87.1,71.0,30.13,ESE,112,3.0,6.0,59,0.00,,---,0.00,VWS V14.01,2013-07-09 16:32:00,
2013-07-09 12:37:00,86.6,71.1,30.13,ENE,77,4.0,9.0,60,0.00,,---,0.00,VWS V14.01,2013-07-09 16:37:00,
2013-07-09 12:42:00,86.2,71.2,30.13,NE,51,0.0,10.0,61,0.00,,---,0.00,VWS V14.01,2013-07-09 16:42:00,
2013-07-09 12:45:00,84.8,71.3,30.14,ESE,123,2.0,10.0,64,0.00,,---,0.00,VWS V15.00,2013-07-09 16:45:00,
2013-07-09 12:47:00,86.3,70.3,30.13,SE,139,6.0,8.0,59,0.00,,---,0.00,VWS V14.01,2013-07-09 16:47:00,
2013-07-09 12:52:00,86.0,71.0,30.13,ESE,118,3.0,8.0,61,0.00,,---,0.00,VWS V14.01,2013-07-09 16:52:00,
2013-07-09 12:57:00,86.5,71.5,30.13,East,84,4.0,8.0,61,0.00,,---,0.00,VWS V14.01,2013-07-09 16:57:00,
2013-07-09 13:00:00,86.1,71.1,30.14,SSE,148,3.0,10.0,61,0.00,,---,0.00,VWS V15.00,2013-07-09 17:00:00,
2013-07-09 13:02:00,86.6,70.6,30.13,East,90,1.0,1.0,59,0.00,,---,0.00,VWS V14.01,2013-07-09 17:02:00,
2013-07-09 13:07:00,86.7,70.7,30.13,ESE,113,7.0,7.0,59,0.00,,---,0.00,VWS V14.01,2013-07-09 17:07:00,
2013-07-09 13:12:00,87.2,70.6,30.13,SSE,147,0.0,7.0,58,0.00,,---,0.00,VWS V14.01,2013-07-09 17:12:00,
2013-07-09 13:15:00,85.6,71.6,30.13,ESE,123,6.0,10.0,63,0.00,,---,0.00,VWS V15.00,2013-07-09 17:15:00,
2013-07-09 13:17:00,87.1,72.0,30.13,East,83,2.0,4.0,61,0.00,,---,0.00,VWS V14.01,2013-07-09 17:17:00,
2013-07-09 13:22:00,87.1,70.0,30.13,SSE,162,2.0,5.0,57,0.00,,---,0.00,VWS V14.01,2013-07-09 17:22:00,
2013-07-09 13:27:00,87.3,71.7,30.13,ESE,120,7.0,7.0,60,0.00,,---,0.00,VWS V14.01,2013-07-09 17:27:00,
2013-07-09 13:30:00,87.1,70.5,30.13,ESE,113,4.0,10.0,58,0.00,,---,0.00,VWS V15.00,2013-07-09 17:30:00,
2013-07-09 13:32:00,86.6,70.1,30.13,SSE,158,0.0,0.0,58,0.00,,---,0.00,VWS V14.01,2013-07-09 17:32:00,
2013-07-09 13:37:00,86.2,71.2,30.12,SSE,159,7.0,8.0,61,0.00,,---,0.00,VWS V14.01,2013-07-09 17:37:00,
2013-07-09 13:43:00,85.9,70.9,30.12,ESE,105,5.0,8.0,61,0.00,,---,0.00,VWS V14.01,2013-07-09 17:43:00,
2013-07-09 13:45:00,86.2,71.2,30.13,SE,139,6.0,10.0,61,0.00,,---,0.00,VWS V15.00,2013-07-09 17:45:00,
2013-07-09 13:48:00,85.4,71.8,30.13,North,11,2.0,4.0,64,0.00,,---,0.00,VWS V14.01,2013-07-09 17:48:00,
2013-07-09 13:53:00,84.1,74.1,30.12,North,352,0.0,4.0,72,0.00,,---,0.00,VWS V14.01,2013-07-09 17:53:00,
2013-07-09 13:58:00,83.5,73.1,30.12,NNW,345,4.0,4.0,71,0.00,,---,0.00,VWS V14.01,2013-07-09 17:58:00,
2013-07-09 14:00:00,86.6,71.6,30.13,East,90,0.0,8.0,61,0.00,,---,0.00,VWS V15.00,2013-07-09 18:00:00,
2013-07-09 14:03:00,83.2,73.2,30.12,NNW,334,0.0,2.0,72,0.00,,---,0.00,VWS V14.01,2013-07-09 18:03:00,
2013-07-09 14:08:00,83.2,72.4,30.12,NNE,19,3.0,5.0,70,0.00,,---,0.00,VWS V14.01,2013-07-09 18:08:00,
2013-07-09 14:13:00,83.1,73.6,30.12,WNW,295,1.0,5.0,73,0.00,,---,0.00,VWS V14.01,2013-07-09 18:13:00,
2013-07-09 14:15:00,87.2,71.6,30.13,ENE,70,3.0,7.0,60,0.00,,---,0.00,VWS V15.00,2013-07-09 18:15:00,
2013-07-09 14:18:00,82.9,72.5,30.12,NNE,23,1.0,3.0,71,0.00,,---,0.00,VWS V14.01,2013-07-09 18:18:00,
2013-07-09 14:23:00,83.1,72.7,30.12,NNW,330,1.0,4.0,71,0.00,,---,0.00,VWS V14.01,2013-07-09 18:23:00,
2013-07-09 14:28:00,82.9,73.4,30.12,NNE,13,3.0,7.0,73,0.00,,---,0.00,VWS V14.01,2013-07-09 18:28:00,
2013-07-09 14:30:00,86.9,70.4,30.12,ESE,117,0.0,8.0,58,0.00,,---,0.00,VWS V15.00,2013-07-09 18:30:00,
2013-07-09 14:33:00,82.9,72.9,30.11,NE,42,3.0,4.0,72,0.00,,---,0.00,VWS V14.01,2013-07-09 18:33:00,
2013-07-09 14:38:00,83.0,73.1,30.12,ENE,58,0.0,4.0,72,0.00,,---,0.00,VWS V14.01,2013-07-09 18:38:00,
2013-07-09 14:43:00,83.3,73.3,30.11,East,101,0.0,4.0,72,0.00,,---,0.00,VWS V14.01,2013-07-09 18:43:00,
2013-07-09 14:45:00,85.6,72.0,30.12,East,81,1.0,8.0,64,0.00,,---,0.00,VWS V15.00,2013-07-09 18:45:00,
2013-07-09 14:48:00,83.6,73.2,30.11,SE,132,4.0,10.0,71,0.00,,---,0.00,VWS V14.01,2013-07-09 18:48:00,
2013-07-09 14:53:00,83.2,72.4,30.11,SE,143,6.0,14.0,70,0.00,,---,0.00,VWS V14.01,2013-07-09 18:53:00,
2013-07-09 14:58:00,83.1,71.9,30.11,SSE,155,5.0,14.0,69,0.00,,---,0.00,VWS V14.01,2013-07-09 18:58:00,
2013-07-09 15:00:00,83.2,73.7,30.12,North,7,0.0,4.0,73,0.00,,---,0.00,VWS V15.00,2013-07-09 19:00:00,
2013-07-09 15:04:00,83.8,72.1,30.11,ESE,114,6.0,13.0,68,0.00,,---,0.00,VWS V14.01,2013-07-09 19:04:00,
2013-07-09 15:09:00,84.6,73.3,30.11,SE,129,5.0,13.0,69,0.00,,---,0.00,VWS V14.01,2013-07-09 19:09:00,
2013-07-09 15:14:00,84.5,72.3,30.11,ESE,103,7.0,13.0,67,0.00,,---,0.00,VWS V14.01,2013-07-09 19:14:00,
2013-07-09 15:15:00,82.9,72.9,30.12,NNE,14,2.0,5.0,72,0.00,,---,0.00,VWS V15.00,2013-07-09 19:15:00,
2013-07-09 15:19:00,84.6,71.6,30.11,ENE,69,6.0,12.0,65,0.00,,---,0.00,VWS V14.01,2013-07-09 19:19:00,
2013-07-09 15:24:00,84.9,70.9,30.10,South,177,6.0,12.0,63,0.00,,---,0.00,VWS V14.01,2013-07-09 19:24:00,
2013-07-09 15:29:00,84.8,70.8,30.10,SE,126,2.0,12.0,63,0.00,,---,0.00,VWS V14.01,2013-07-09 19:29:00,
2013-07-09 15:30:00,82.9,72.9,30.12,NNW,335,2.0,7.0,72,0.00,,---,0.00,VWS V15.00,2013-07-09 19:30:00,
2013-07-09 15:34:00,84.4,70.9,30.10,South,169,3.0,7.0,64,0.00,,---,0.00,VWS V14.01,2013-07-09 19:34:00,
2013-07-09 15:39:00,84.1,71.1,30.10,East,98,1.0,8.0,65,0.00,,---,0.00,VWS V14.01,2013-07-09 19:39:00,
2013-07-09 15:44:00,83.8,71.7,30.10,SE,146,4.0,8.0,67,0.00,,---,0.00,VWS V14.01,2013-07-09 19:44:00,
2013-07-09 15:45:00,83.5,73.5,30.11,East,85,1.0,5.0,72,0.00,,---,0.00,VWS V15.00,2013-07-09 19:45:00,
2013-07-09 15:49:00,83.7,71.6,30.10,East,82,3.0,6.0,67,0.00,,---,0.00,VWS V14.01,2013-07-09 19:49:00,
2013-07-09 15:54:00,83.6,72.4,30.10,SSW,209,1.0,6.0,69,0.00,,---,0.00,VWS V14.01,2013-07-09 19:54:00,
2013-07-09 15:59:00,83.6,72.4,30.09,East,89,2.0,6.0,69,0.00,,---,0.00,VWS V14.01,2013-07-09 19:59:00,
2013-07-09 16:00:00,83.4,72.6,30.11,SE,127,4.0,14.0,70,0.00,,---,0.00,VWS V15.00,2013-07-09 20:00:00,
2013-07-09 16:04:00,83.8,72.1,30.09,ENE,61,1.0,3.0,68,0.00,,---,0.00,VWS V14.01,2013-07-09 20:04:00,
2013-07-09 16:09:00,83.8,70.8,30.09,WSW,250,3.0,8.0,65,0.00,,---,0.00,VWS V14.01,2013-07-09 20:09:00,
2013-07-09 16:14:00,83.9,72.2,30.09,ENE,76,1.0,8.0,68,0.00,,---,0.00,VWS V14.01,2013-07-09 20:14:00,
2013-07-09 16:15:00,84.5,71.9,30.11,ENE,78,3.0,13.0,66,0.00,,---,0.00,VWS V15.00,2013-07-09 20:15:00,
2013-07-09 16:19:00,84.8,71.7,30.09,East,83,2.0,5.0,65,0.00,,---,0.00,VWS V14.01,2013-07-09 20:19:00,
2013-07-09 16:24:00,85.0,71.5,30.08,ENE,77,0.0,6.0,64,0.00,,---,0.00,VWS V14.01,2013-07-09 20:24:00,
2013-07-09 16:29:00,86.1,73.0,30.08,SE,146,0.0,6.0,65,0.00,,---,0.00,VWS V14.01,2013-07-09 20:29:00,
2013-07-09 16:30:00,84.6,71.6,30.10,ESE,110,5.0,12.0,65,0.00,,---,0.00,VWS V15.00,2013-07-09 20:30:00,
2013-07-09 16:34:00,86.9,72.3,30.08,SSE,161,2.0,5.0,62,0.00,,---,0.00,VWS V14.01,2013-07-09 20:34:00,
2013-07-09 16:39:00,86.1,71.6,30.08,East,94,4.0,7.0,62,0.00,,---,0.00,VWS V14.01,2013-07-09 20:39:00,
2013-07-09 16:44:00,85.4,71.8,30.08,NE,46,1.0,7.0,64,0.00,,---,0.00,VWS V14.01,2013-07-09 20:44:00,
2013-07-09 16:45:00,83.9,71.8,30.10,NE,46,2.0,8.0,67,0.00,,---,0.00,VWS V15.00,2013-07-09 20:45:00,
2013-07-09 16:49:00,85.1,72.0,30.08,East,93,0.0,4.0,65,0.00,,---,0.00,VWS V14.01,2013-07-09 20:49:00,
2013-07-09 16:54:00,85.0,71.9,30.08,ESE,115,0.0,5.0,65,0.00,,---,0.00,VWS V14.01,2013-07-09 20:54:00,
2013-07-09 16:59:00,84.7,71.6,30.08,ENE,72,2.0,6.0,65,0.00,,---,0.00,VWS V14.01,2013-07-09 20:59:00,
2013-07-09 17:00:00,83.6,71.9,30.09,ESE,105,2.0,6.0,68,0.00,,---,0.00,VWS V15.00,2013-07-09 21:00:00,
2013-07-09 17:04:00,84.6,71.6,30.08,NE,35,0.0,5.0,65,0.00,,---,0.00,VWS V14.01,2013-07-09 21:04:00,
2013-07-09 17:10:00,84.6,72.0,30.08,NNW,342,3.0,5.0,66,0.00,,---,0.00,VWS V14.01,2013-07-09 21:10:00,
2013-07-09 17:15:00,83.6,74.4,30.08,North,10,2.0,6.0,74,0.00,,---,0.00,VWS V14.01,2013-07-09 21:15:00,
2013-07-09 17:20:00,82.7,73.2,30.08,NNE,23,0.0,5.0,73,0.00,,---,0.00,VWS V14.01,2013-07-09 21:20:00,
2013-07-09 17:25:00,82.5,72.6,30.08,North,357,0.0,5.0,72,0.00,,---,0.00,VWS V14.01,2013-07-09 21:25:00,
2013-07-09 17:30:00,82.5,72.6,30.08,NNW,336,0.0,5.0,72,0.00,,---,0.00,VWS V14.01,2013-07-09 21:30:00,
2013-07-09 17:35:00,83.8,71.7,30.08,NNW,337,2.0,5.0,67,0.00,,---,0.00,VWS V14.01,2013-07-09 21:35:00,
2013-07-09 17:40:00,85.1,71.6,30.08,NE,36,1.0,5.0,64,0.00,,---,0.00,VWS V14.01,2013-07-09 21:40:00,
2013-07-09 17:45:00,86.2,71.7,30.07,ENE,63,1.0,5.0,62,0.00,,---,0.00,VWS V14.01,2013-07-09 21:45:00,
2013-07-09 17:50:00,86.6,70.6,30.07,North,351,0.0,3.0,59,0.00,,---,0.00,VWS V14.01,2013-07-09 21:50:00,
2013-07-09 17:55:00,86.8,69.2,30.07,East,95,4.0,7.0,56,0.00,,---,0.00,VWS V14.01,2013-07-09 21:55:00,
2013-07-09 18:00:00,86.8,69.8,30.07,East,82,3.0,9.0,57,0.00,,---,0.00,VWS V14.01,2013-07-09 22:00:00,
2013-07-09 18:05:00,86.5,70.5,30.07,SE,136,5.0,10.0,59,0.00,,---,0.00,VWS V14.01,2013-07-09 22:05:00,
2013-07-09 18:10:00,86.4,70.4,30.07,East,98,5.0,10.0,59,0.00,,---,0.00,VWS V14.01,2013-07-09 22:10:00,
2013-07-09 18:15:00,85.3,70.3,30.07,ENE,68,3.0,10.0,61,0.00,,---,0.00,VWS V14.01,2013-07-09 22:15:00,
2013-07-09 18:20:00,84.5,70.5,30.06,East,89,6.0,12.0,63,0.00,,---,0.00,VWS V14.01,2013-07-09 22:20:00,
2013-07-09 18:25:00,84.6,70.6,30.07,East,96,6.0,12.0,63,0.00,,---,0.00,VWS V14.01,2013-07-09 22:25:00,
2013-07-09 18:30:00,84.4,71.4,30.07,East,80,5.0,12.0,65,0.00,,---,0.00,VWS V14.01,2013-07-09 22:30:00,
2013-07-09 18:35:00,84.8,71.7,30.06,ESE,117,6.0,6.0,65,0.00,,---,0.00,VWS V14.01,2013-07-09 22:35:00,
2013-07-09 18:40:00,85.0,71.5,30.06,East,101,1.0,7.0,64,0.00,,---,0.00,VWS V14.01,2013-07-09 22:40:00,
2013-07-09 18:45:00,85.0,71.0,30.06,ESE,113,2.0,8.0,63,0.00,,---,0.00,VWS V14.01,2013-07-09 22:45:00,
2013-07-09 18:50:00,85.2,70.7,30.06,East,84,3.0,9.0,62,0.00,,---,0.00,VWS V14.01,2013-07-09 22:50:00,
2013-07-09 18:55:00,85.0,71.0,30.06,SE,129,6.0,9.0,63,0.00,,---,0.00,VWS V14.01,2013-07-09 22:55:00,
2013-07-09 19:00:00,84.7,71.2,30.06,ENE,77,8.0,9.0,64,0.00,,---,0.00,VWS V14.01,2013-07-09 23:00:00,
2013-07-09 19:05:00,84.3,71.7,30.06,SE,134,2.0,8.0,66,0.00,,---,0.00,VWS V14.01,2013-07-09 23:05:00,
2013-07-09 19:10:00,84.2,71.6,30.06,ENE,62,3.0,8.0,66,0.00,,---,0.00,VWS V14.01,2013-07-09 23:10:00,
2013-07-09 19:15:00,83.6,71.5,30.06,SE,130,4.0,8.0,67,0.00,,---,0.00,VWS V14.01,2013-07-09 23:15:00,
2013-07-09 19:20:00,83.5,71.8,30.06,SE,142,3.0,8.0,68,0.00,,---,0.00,VWS V14.01,2013-07-09 23:20:00,
2013-07-09 19:25:00,83.0,71.8,30.06,East,89,4.0,9.0,69,0.00,,---,0.00,VWS V14.01,2013-07-09 23:25:00,
2013-07-09 19:30:00,83.0,72.2,30.06,ENE,68,6.0,9.0,70,0.00,,---,0.00,VWS V14.01,2013-07-09 23:30:00,
2013-07-09 19:35:00,82.8,72.4,30.06,SE,129,2.0,6.0,71,0.00,,---,0.00,VWS V14.01,2013-07-09 23:35:00,
2013-07-09 19:40:00,82.7,72.3,30.06,East,90,1.0,6.0,71,0.00,,---,0.00,VWS V14.01,2013-07-09 23:40:00,
2013-07-09 19:45:00,82.4,72.5,30.06,ENE,75,2.0,6.0,72,0.00,,---,0.00,VWS V14.01,2013-07-09 23:45:00,
2013-07-09 19:50:00,82.2,72.3,30.07,ESE,121,2.0,6.0,72,0.00,,---,0.00,VWS V14.01,2013-07-09 23:50:00,
2013-07-09 19:56:00,82.0,72.1,30.07,SSE,158,2.0,7.0,72,0.00,,---,0.00,VWS V14.01,2013-07-09 23:56:00,
2013-07-09 20:00:00,84.7,71.2,30.06,East,90,3.0,9.0,64,0.00,,---,0.00,VWS V15.00,2013-07-10 00:00:00,
2013-07-09 20:01:00,81.9,72.4,30.07,East,80,4.0,7.0,73,0.00,,---,0.00,VWS V14.01,2013-07-10 00:01:00,
2013-07-09 20:06:00,81.8,72.3,30.06,East,99,1.0,5.0,73,0.00,,---,0.00,VWS V14.01,2013-07-10 00:06:00,
2013-07-09 20:11:00,81.7,72.6,30.07,ESE,113,2.0,7.0,74,0.00,,---,0.00,VWS V14.01,2013-07-10 00:11:00,
2013-07-09 20:15:00,83.6,71.5,30.06,ENE,74,4.0,8.0,67,0.00,,---,0.00,VWS V15.00,2013-07-10 00:15:00,
2013-07-09 20:16:00,81.6,72.9,30.07,ESE,117,3.0,7.0,75,0.00,,---,0.00,VWS V14.01,2013-07-10 00:16:00,
2013-07-09 20:21:00,81.4,72.7,30.07,ESE,122,1.0,3.0,75,0.00,,---,0.00,VWS V14.01,2013-07-10 00:21:00,
2013-07-09 20:26:00,81.4,72.7,30.07,ESE,109,2.0,4.0,75,0.00,,---,0.00,VWS V14.01,2013-07-10 00:26:00,
2013-07-09 20:30:00,83.0,72.2,30.06,NE,54,4.0,9.0,70,0.00,,---,0.00,VWS V15.00,2013-07-10 00:30:00,
2013-07-09 20:31:00,81.4,72.7,30.07,East,82,3.0,4.0,75,0.00,,---,0.00,VWS V14.01,2013-07-10 00:31:00,
2013-07-09 20:36:00,81.3,73.0,30.07,SE,124,1.0,4.0,76,0.00,,---,0.00,VWS V14.01,2013-07-10 00:36:00,
2013-07-09 20:41:00,81.2,72.9,30.07,East,88,4.0,7.0,76,0.00,,---,0.00,VWS V14.01,2013-07-10 00:41:00,
2013-07-09 20:45:00,82.4,72.5,30.06,SE,137,1.0,6.0,72,0.00,,---,0.00,VWS V15.00,2013-07-10 00:45:00,
2013-07-09 20:46:00,81.1,72.4,30.07,SE,124,3.0,7.0,75,0.00,,---,0.00,VWS V14.01,2013-07-10 00:46:00,
2013-07-09 20:51:00,81.1,72.0,30.07,South,186,3.0,6.0,74,0.00,,---,0.00,VWS V14.01,2013-07-10 00:51:00,
2013-07-09 20:56:00,81.0,71.9,30.08,East,88,1.0,6.0,74,0.00,,---,0.00,VWS V14.01,2013-07-10 00:56:00,
2013-07-09 21:00:00,81.9,72.4,30.07,NE,53,2.0,7.0,73,0.00,,---,0.00,VWS V15.00,2013-07-10 01:00:00,
2013-07-09 21:01:00,81.0,71.9,30.07,ENE,77,1.0,2.0,74,0.00,,---,0.00,VWS V14.01,2013-07-10 01:01:00,
2013-07-09 21:06:00,80.9,71.8,30.08,East,98,3.0,3.0,74,0.00,,---,0.00,VWS V14.01,2013-07-10 01:06:00,
2013-07-09 21:11:00,80.8,72.1,30.07,East,86,1.0,3.0,75,0.00,,---,0.00,VWS V14.01,2013-07-10 01:11:00,
2013-07-09 21:15:00,81.6,72.9,30.07,ESE,105,1.0,7.0,75,0.00,,---,0.00,VWS V15.00,2013-07-10 01:15:00,
2013-07-09 21:16:00,80.7,72.0,30.08,East,95,3.0,3.0,75,0.00,,---,0.00,VWS V14.01,2013-07-10 01:16:00,
2013-07-09 21:21:00,80.7,72.0,30.08,East,91,2.0,4.0,75,0.00,,---,0.00,VWS V14.01,2013-07-10 01:21:00,
2013-07-09 21:26:00,80.6,72.3,30.08,ESE,122,2.0,4.0,76,0.00,,---,0.00,VWS V14.01,2013-07-10 01:26:00,
2013-07-09 21:30:00,81.4,72.7,30.07,East,82,2.0,4.0,75,0.00,,---,0.00,VWS V15.00,2013-07-10 01:30:00,
2013-07-09 21:31:00,80.5,72.2,30.08,East,95,1.0,1.0,76,0.00,,---,0.00,VWS V14.01,2013-07-10 01:31:00,
2013-07-09 21:36:00,80.4,72.5,30.08,ESE,109,1.0,2.0,77,0.00,,---,0.00,VWS V14.01,2013-07-10 01:36:00,
2013-07-09 21:41:00,80.3,72.4,30.08,East,89,0.0,3.0,77,0.00,,---,0.00,VWS V14.01,2013-07-10 01:41:00,
2013-07-09 21:45:00,81.1,72.4,30.07,SE,124,3.0,7.0,75,0.00,,---,0.00,VWS V15.00,2013-07-10 01:45:00,
2013-07-09 21:46:00,80.2,72.3,30.08,East,98,2.0,2.0,77,0.00,,---,0.00,VWS V14.01,2013-07-10 01:46:00,
2013-07-09 21:51:00,80.1,72.6,30.08,SSE,148,1.0,3.0,78,0.00,,---,0.00,VWS V14.01,2013-07-10 01:51:00,
2013-07-09 21:56:00,80.2,72.3,30.08,SE,131,2.0,4.0,77,0.00,,---,0.00,VWS V14.01,2013-07-10 01:56:00,
2013-07-09 22:00:00,81.0,71.9,30.07,ENE,77,2.0,6.0,74,0.00,,---,0.00,VWS V15.00,2013-07-10 02:00:00,
2013-07-09 22:01:00,80.1,72.6,30.08,East,100,1.0,1.0,78,0.00,,---,0.00,VWS V14.01,2013-07-10 02:01:00,
2013-07-09 22:06:00,80.1,72.6,30.08,East,99,2.0,4.0,78,0.00,,---,0.00,VWS V14.01,2013-07-10 02:06:00,
2013-07-09 22:11:00,80.0,72.5,30.09,East,93,1.0,4.0,78,0.00,,---,0.00,VWS V14.01,2013-07-10 02:11:00,
2013-07-09 22:15:00,80.7,72.0,30.07,East,82,2.0,4.0,75,0.00,,---,0.00,VWS V15.00,2013-07-10 02:15:00,
2013-07-09 22:16:00,79.9,72.4,30.08,East,91,1.0,1.0,78,0.00,,---,0.00,VWS V14.01,2013-07-10 02:16:00,
2013-07-09 22:21:00,79.8,72.3,30.09,East,97,1.0,3.0,78,0.00,,---,0.00,VWS V14.01,2013-07-10 02:21:00,
2013-07-09 22:27:00,79.8,72.3,30.09,SE,127,1.0,3.0,78,0.00,,---,0.00,VWS V14.01,2013-07-10 02:27:00,
2013-07-09 22:30:00,80.5,72.6,30.08,East,96,1.0,4.0,77,0.00,,---,0.00,VWS V15.00,2013-07-10 02:30:00,
2013-07-09 22:32:00,79.8,72.3,30.08,ESE,106,0.0,1.0,78,0.00,,---,0.00,VWS V14.01,2013-07-10 02:32:00,
2013-07-09 22:37:00,79.7,72.2,30.09,SE,140,2.0,3.0,78,0.00,,---,0.00,VWS V14.01,2013-07-10 02:37:00,
2013-07-09 22:42:00,79.7,72.2,30.09,ESE,105,0.0,3.0,78,0.00,,---,0.00,VWS V14.01,2013-07-10 02:42:00,
2013-07-09 22:45:00,80.2,72.3,30.08,ESE,104,1.0,3.0,77,0.00,,---,0.00,VWS V15.00,2013-07-10 02:45:00,
2013-07-09 22:47:00,79.7,72.2,30.09,East,91,1.0,1.0,78,0.00,,---,0.00,VWS V14.01,2013-07-10 02:47:00,
2013-07-09 22:52:00,79.7,72.2,30.09,East,95,0.0,2.0,78,0.00,,---,0.00,VWS V14.01,2013-07-10 02:52:00,
2013-07-09 22:57:00,79.5,72.0,30.09,SE,136,0.0,2.0,78,0.00,,---,0.00,VWS V14.01,2013-07-10 02:57:00,
2013-07-09 23:00:00,80.2,72.7,30.08,SSE,150,1.0,4.0,78,0.00,,---,0.00,VWS V15.00,2013-07-10 03:00:00,
2013-07-09 23:02:00,79.5,72.0,30.09,SE,134,0.0,0.0,78,0.00,,---,0.00,VWS V14.01,2013-07-10 03:02:00,
2013-07-09 23:07:00,79.3,72.6,30.09,SE,134,0.0,1.0,80,0.00,,---,0.00,VWS V14.01,2013-07-10 03:07:00,
2013-07-09 23:12:00,79.2,72.1,30.09,SE,127,0.0,2.0,79,0.00,,---,0.00,VWS V14.01,2013-07-10 03:12:00,
2013-07-09 23:15:00,79.9,72.4,30.08,East,88,0.0,4.0,78,0.00,,---,0.00,VWS V15.00,2013-07-10 03:15:00,
2013-07-09 23:17:00,79.2,72.5,30.09,SE,127,0.0,0.0,80,0.00,,---,0.00,VWS V14.01,2013-07-10 03:17:00,
2013-07-09 23:22:00,79.0,72.3,30.09,SE,127,0.0,1.0,80,0.00,,---,0.00,VWS V14.01,2013-07-10 03:22:00,
2013-07-09 23:27:00,78.9,72.6,30.09,SE,127,0.0,1.0,81,0.00,,---,0.00,VWS V14.01,2013-07-10 03:27:00,
2013-07-09 23:30:00,79.8,72.3,30.08,ESE,112,0.0,3.0,78,0.00,,---,0.00,VWS V15.00,2013-07-10 03:30:00,
2013-07-09 23:32:00,78.6,72.7,30.09,SE,127,0.0,0.0,82,0.00,,---,0.00,VWS V14.01,2013-07-10 03:32:00,
2013-07-09 23:37:00,78.4,72.8,30.09,SE,127,0.0,0.0,83,0.00,,---,0.00,VWS V14.01,2013-07-10 03:37:00,
2013-07-09 23:42:00,78.4,72.8,30.09,SE,127,0.0,0.0,83,0.00,,---,0.00,VWS V14.01,2013-07-10 03:42:00,
2013-07-09 23:45:00,79.7,72.2,30.09,East,91,0.0,3.0,78,0.00,,---,0.00,VWS V15.00,2013-07-10 03:45:00,
2013-07-09 23:47:00,78.3,73.1,30.09,SE,127,0.0,0.0,84,0.00,,---,0.00,VWS V14.01,2013-07-10 03:47:00,
2013-07-09 23:52:00,78.0,72.8,30.09,SE,127,0.0,0.0,84,0.00,,---,0.00,VWS V14.01,2013-07-10 03:52:00,
2013-07-09 23:57:00,77.7,72.5,30.09,SE,127,0.0,0.0,84,0.00,,---,0.00,VWS V14.01,2013-07-10 03:57:00,